Weather History for Ashtabula, OH

Change the Weather History Date:

Thursday, February 6, 2014

  Actual Average (KYNG) Record (KYNG)
Temperature  
Mean Temperature 8 °F 27 °F  
Max Temperature 19 °F 34 °F 62 °F (1938)
Min Temperature -4 °F 20 °F -7 °F (1979)
Degree Days  
Heating Degree Days 58 38  
Month to date heating degree days 231  
Since 1 July heating degree days 3854  
Cooling Degree Days 0 0  
Month to date cooling degree days 0  
Year to date cooling degree days 0  
Moisture  
Dew Point 2 °F    
Average Humidity 73    
Maximum Humidity 87    
Minimum Humidity 60    
Precipitation  
Precipitation 0.00 in 0.08 in 1.51 in (2008)
Month to date precipitation 0.45  
Year to date precipitation 3.00  
Snow  
Snow 0.00 in 0.50 in - ()
Month to date snowfall 2.8  
Since 1 July snowfall 38.8  
Snow Depth -    
Sea Level Pressure  
Sea Level Pressure 30.33 in    
Wind  
Wind Speed 4 mph (West)    
Max Wind Speed 21 mph    
Max Gust Speed 26 mph    
Visibility 8 miles    
Events Snow    
T = Trace of Precipitation, MM = Missing Value Source: NWS Daily Summary

Daily Weather History Graph

Daily Weather History Graph

Search for Another Location

Airport:

Trip Planner

Search our weather history database for the weather conditions in past years. The results will help you decide how hot, cold, wet, or windy it might be!

Date:

Astronomy

Feb. 06, 2014 Rise Set
Actual Time 7:29 AM EST 5:44 PM EST
Civil Twilight 7:00 AM EST 6:13 PM EST
Nautical Twilight 6:27 AM EST 6:46 PM EST
Astronomical Twilight 5:55 AM EST 7:19 PM EST
Moon 11:15 AM EST (2/6) 12:43 AM EST (2/6)
Length of Visible Light 11h 13m
Length of Day
10h 15m
Waxing Crescent, 49% of the Moon is Illuminated
Feb 6
Waxing Crescent
Feb 6
First Quarter
Feb 14
Full
Feb 22
Last Quarter
Mar 1
New

Hourly Weather History & Observations

Time (EST) Temp. Windchill Dew Point Humidity Pressure Visibility Wind Dir Wind Speed Gust Speed Precip Events Conditions
12:00 AM 14.0 °F 6.5 °F 6.8 °F 73% 30.27 in 10.0 mi North 4.6 mph - N/A   Overcast
12:29 AM 12.2 °F 6.1 °F 6.8 °F 79% 30.28 in 10.0 mi NNW 3.5 mph - N/A   Mostly Cloudy
12:53 AM 10.9 °F - 5.0 °F 77% 30.33 in 10.0 mi Calm Calm - N/A   Mostly Cloudy
1:53 AM 1.9 °F -5.6 °F -2.0 °F 83% 30.35 in 10.0 mi West 3.5 mph - N/A   Clear
2:53 AM 3.9 °F - -2.0 °F 76% 30.35 in 10.0 mi Calm Calm - N/A   Clear
3:45 AM -0.4 °F - -5.8 °F 78% 30.31 in 10.0 mi Calm Calm - N/A   Mostly Cloudy
3:53 AM 1.0 °F - -5.1 °F 75% 30.36 in 10.0 mi Calm Calm - N/A   Mostly Cloudy
4:53 AM 3.0 °F - -2.0 °F 80% 30.36 in 10.0 mi Calm Calm - N/A   Overcast
5:35 AM -0.4 °F - -5.8 °F 78% 30.32 in 10.0 mi Calm Calm - N/A   Scattered Clouds
5:53 AM -2.0 °F - -8.0 °F 76% 30.38 in 10.0 mi Calm Calm - N/A   Partly Cloudy
6:21 AM -4.0 °F - -9.4 °F 78% 30.32 in 10.0 mi Calm Calm - N/A   Mostly Cloudy
6:50 AM -2.2 °F - -7.6 °F 78% 30.33 in 1.8 mi Calm Calm - N/A   Haze
6:51 AM -2.9 °F - -8.0 °F 79% 30.39 in 1.8 mi Calm Calm - N/A   Haze
7:08 AM -2.2 °F - -7.6 °F 78% 30.33 in 2.0 mi Calm Calm - N/A   Haze
7:17 AM -2.2 °F - -7.6 °F 78% 30.33 in 5.0 mi Calm Calm - N/A   Haze
7:53 AM -2.0 °F - -7.1 °F 79% 30.39 in 8.0 mi Calm Calm - N/A   Mostly Cloudy
8:04 AM -0.4 °F - -5.8 °F 78% 30.33 in 4.0 mi Calm Calm - N/A   Haze
8:16 AM -0.4 °F - -5.8 °F 78% 30.34 in 1.8 mi Calm Calm - N/A   Clear
8:33 AM 1.4 °F - -2.2 °F 85% 30.35 in 3.0 mi Calm Calm - N/A   Clear
8:53 AM 3.0 °F - -0.0 °F 87% 30.40 in 8.0 mi Calm Calm - N/A   Clear
9:53 AM 12.0 °F 4.1 °F 8.1 °F 84% 30.40 in 10.0 mi SW 4.6 mph - N/A   Mostly Cloudy
10:53 AM 15.1 °F 4.2 °F 8.1 °F 74% 30.40 in 10.0 mi WSW 8.1 mph - N/A   Overcast
11:43 AM 17.6 °F 9.3 °F 8.6 °F 68% 30.34 in 9.0 mi West 5.8 mph - N/A   Overcast
11:53 AM 17.1 °F 7.6 °F 8.1 °F 68% 30.39 in 6.0 mi WSW 6.9 mph - 0.00 in Snow Light Snow
12:53 PM 19.0 °F 9.0 °F 8.1 °F 62% 30.36 in 10.0 mi West 8.1 mph - 0.00 in   Overcast
1:13 PM 19.4 °F 7.2 °F 8.6 °F 63% 30.30 in 10.0 mi WSW 11.5 mph 17.3 mph N/A   Overcast
1:53 PM 19.0 °F 9.0 °F 9.0 °F 65% 30.35 in 8.0 mi WNW 8.1 mph - 0.00 in Snow Light Snow
2:53 PM 19.0 °F 10.0 °F 8.1 °F 62% 30.33 in 9.0 mi West 6.9 mph - 0.00 in   Overcast
3:53 PM 19.0 °F 8.2 °F 8.1 °F 62% 30.33 in 10.0 mi WSW 9.2 mph - N/A   Overcast
4:53 PM 19.9 °F 8.6 °F 8.1 °F 60% 30.32 in 10.0 mi WSW 10.4 mph - N/A   Overcast
5:53 PM 19.0 °F 6.1 °F 8.1 °F 62% 30.32 in 10.0 mi SW 12.7 mph - N/A   Overcast
6:53 PM 19.0 °F 10.0 °F 8.1 °F 62% 30.31 in 10.0 mi SW 6.9 mph - N/A   Overcast
7:53 PM 19.0 °F 10.0 °F 9.0 °F 65% 30.30 in 10.0 mi SW 6.9 mph - N/A   Overcast
8:19 PM 19.4 °F 8.6 °F 10.4 °F 68% 30.24 in 10.0 mi WSW 9.2 mph - N/A   Overcast
8:53 PM 19.0 °F 7.5 °F 10.9 °F 71% 30.30 in 4.0 mi West 10.4 mph - 0.00 in Snow Light Snow
9:53 PM 17.1 °F 0.1 °F 7.0 °F 65% 30.31 in 8.0 mi West 20.7 mph 26.5 mph 0.00 in   Overcast
10:53 PM 12.0 °F -2.0 °F 3.9 °F 70% 30.32 in 10.0 mi WNW 11.5 mph 26.5 mph 0.00 in   Overcast
11:11 PM 10.4 °F -3.3 °F 3.2 °F 73% 30.28 in 10.0 mi WNW 10.4 mph 19.6 mph N/A   Scattered Clouds
11:43 PM 8.6 °F -6.3 °F 1.4 °F 73% 30.29 in 10.0 mi WNW 11.5 mph - N/A   Mostly Cloudy
11:53 PM 7.0 °F -8.3 °F -0.0 °F 73% 30.35 in 10.0 mi WNW 11.5 mph - N/A   Overcast